Location: Duac?
(36.9744°N, 30.6500°E)
Time: 15:37:49
(UTC+00:00)

COSMOS 2428 - Pass Details

Date: 05 August 2024
Orbit: 842 x 857 km, 70.9° (Epoch: 12 September)

Event Time Altitude Azimuth Distance (km) Brightness Sun altitude
Exits shadow 23:35:46 21° 101° (ESE) 1,792 4.5 -32.1°
Maximum altitude 23:35:49 21° 100° (E) 1,792 4.5 -32.1°
Drops below altitude 10° 23:39:59 10° 53° (NE) 2,473 5.8 -31.8°
Sets 23:42:58 0° 38° (NE) 3,416 7.0 -31.5°
